Location: Morrison Observatory
(41.7012°N, 86.2315°W)
Time: 17:45:18
(UTC-05:00)

Daily predictions for brighter satellites

Satellite Brightness Start Highest point End
(mag) Time Altitude Azimuth Time Altitude Azimuth Time Altitude Azimuth
Thor Agena Rocket 4.2 18:55:42 10° N 19:00:41 59° WNW 19:05:36 10° SSW
SKYMED 2 3.7 18:57:28 10° N 19:01:50 83° WNW 19:06:10 10° SSW
BREEZE-M DEB (TANK) 3.9 18:58:22 10° SSW 19:02:49 28° SSE 19:05:12 10° E
CZ-3C R/B 4.1 19:00:25 10° SW 19:05:41 13° SSW 19:08:49 10° S
Cosmos 1850 Rocket 4.3 19:00:43 10° S 19:05:47 48° ESE 19:10:54 10° NNE
Cosmos 2208 Rocket 4.4 19:01:03 10° N 19:06:18 45° ENE 19:11:26 10° SE
Meteor 1-19 Rocket 4.3 19:01:34 10° N 19:07:14 62° ENE 19:12:57 10° SSE
SJ-6B 3.1 19:05:51 10° SE 19:09:37 43° ENE 19:13:19 10° N
Cosmos 405 Rocket 4.5 19:07:58 10° NNE 19:10:21 15° ENE 19:12:42 10° ESE
Cosmos 1954 Rocket 4.3 19:05:19 10° SSW 19:10:30 74° WNW 19:15:46 10° NNE
Cosmos 2237 Rocket 3.6 19:06:47 10° N 19:10:43 19° NE 19:14:36 10° E
ALOS 2.8 19:09:04 10° SE 19:13:20 37° ENE 19:17:37 10° N
Cosmos 2297 Rocket 3.9 19:13:39 10° E 19:14:08 10° E 19:14:23 10° E
Cosmos 1536 Rocket 4.1 19:09:46 10° NNW 19:14:13 66° W 19:18:39 10° S
HJ-1C 4.3 19:11:34 10° SE 19:14:29 27° ENE 19:17:24 10° NNE
Cosmos 2237 4.2 19:09:31 10° NNW 19:15:15 65° ENE 19:20:54 10° SE
COSMOS 2428 2.9 19:09:48 10° NNW 19:15:22 52° ENE 19:20:53 10° SE
H-2A R/B 3.9 19:13:34 10° ESE 19:16:27 21° ENE 19:19:21 10° NNE
Okean 1-7 Rocket 3.9 19:14:14 10° N 19:18:36 46° ENE 19:22:54 10° SSE
Meteor 2-4 Rocket 3.7 19:15:50 10° N 19:21:17 57° ENE 19:26:33 10° SSE
Gbstr 26 Del rocket 3.0 19:17:59 10° WSW 19:21:51 62° NNW 19:25:33 10° NE
Cosmos 2285 Rocket 4.4 19:16:07 10° N 19:22:15 43° ENE 19:28:18 10° SE
Cosmos 2219 Rocket 2.8 19:18:20 10° N 19:23:26 34° ENE 19:28:30 10° ESE
Cosmos 2360 Rocket 2.7 19:18:06 10° NNW 19:23:43 65° WSW 19:29:18 10° S
Meteor 1-23 Rocket 4.4 19:21:19 10° N 19:27:00 53° ENE 19:32:35 10° SSE
Meteor 1-13 Rocket 4.4 19:22:29 10° NNW 19:28:04 78° W 19:33:44 10° S
Okean 2 4.3 19:24:30 10° NNE 19:28:10 29° ENE 19:31:49 10° SE
Cosmos 2219 3.2 19:26:14 10° SSW 19:31:56 70° ESE 19:37:39 10° NNE
Atlas Centaur 2 4.5 19:29:49 10° S 19:32:21 12° SSE 19:34:44 10° SE
FREGAT/IRIS 2.6 19:30:14 10° S 19:33:19 86° WSW 19:36:25 10° NNW
Cosmos 2227 Rocket 3.3 19:29:58 10° SSE 19:34:11 22° E 19:38:24 10° NE
Abrixas rocket 2.2 19:31:34 10° WSW 19:34:55 89° SSE 19:37:11 19° ENE
Helios 1B rocket 3.7 19:32:21 10° NE 19:35:25 20° E 19:38:28 10° SE
Helios 1A 4.1 19:33:28 17° ESE 19:35:25 23° ENE 19:38:44 10° NNE
Cosmos 1300 Rocket 4.2 19:34:05 10° SSW 19:38:26 59° W 19:42:51 10° N
Cosmos 1536 2.7 19:35:40 10° S 19:39:39 88° E 19:43:39 10° N
SAR-Lupe-4 4.3 19:44:54 25° ESE 19:46:01 31° ENE 19:49:14 10° N
SL-16 R/B 3.8 19:42:58 10° N 19:46:26 16° NE 19:47:23 16° ENE
Cosmos 1455 Rocket 4.0 19:43:05 10° SE 19:46:38 25° E 19:50:10 10° NE
Cosmos 1437 4.4 19:51:12 10° NNE 19:52:44 20° NE 19:52:44 20° NE
Cosmos 1763 Rocket 4.4 19:52:15 10° N 19:56:38 28° ENE 19:57:29 26° ENE
Resurs 01 Rocket 1.5 19:55:34 10° SSE 19:59:57 83° ENE 20:04:23 10° NNW
Cosmos 1610 Rocket 4.4 19:59:50 10° S 20:05:58 67° E 20:12:05 10° NNE
Cosmos 2333 Rocket 2.2 20:03:49 10° NNW 20:09:33 64° ENE 20:12:59 25° SE
Resurs 1-3 3.5 20:05:59 10° SSE 20:10:22 90° ESE 20:14:47 10° NNW
Cosmos 1980 3.8 20:05:01 10° NNW 20:10:33 52° ENE 20:12:50 33° ESE
FENGYUN 3A 4.1 20:06:09 10° S 20:11:31 65° W 20:16:55 10° NNW
GEOS 3 Rocket 3.6 20:08:20 16° NE 20:12:31 66° ESE 20:17:46 10° SSW
GPS 2-04 Rocket1 3.7 20:09:25 10° WSW 20:13:22 37° S 20:14:12 33° SSE
Cosmos 1892 Rocket 3.4 20:18:47 10° N 20:23:09 88° W 20:26:07 20° S
OTV 4 2.6 20:21:21 10° SW 20:22:38 19° SSW 20:22:38 19° SSW
Cosmos 1025 Rocket 4.3 20:21:15 10° NNW 20:25:23 42° W 20:29:31 10° SSW
Cosmos 468 Rocket 3.9 20:20:28 10° NNW 20:25:44 89° WSW 20:28:51 25° SSE
USA 229 DEB 4.1 20:21:57 10° NW 20:29:00 65° WSW 20:35:24 13° SSE
USA 229 4.1 20:22:03 10° NW 20:29:07 65° WSW 20:35:26 14° SSE
USA 186 4.4 20:31:50 12° NNW 20:31:50 12° NNW 20:32:05 10° NNW
Spot 2 Rocket 4.2 20:25:11 10° S 20:30:06 54° W 20:35:06 10° NNW
Cosmos 1515 4.4 20:30:18 10° N 20:33:04 45° N 20:33:04 45° N
Cosmos 2082 3.6 20:30:29 10° S 20:36:08 64° ESE 20:37:59 42° NE
Hubble Space Telescope 3.3 20:38:02 10° SSW 20:38:56 12° SSW 20:38:56 12° SSW
Spot 1 4.3 20:39:07 44° SSW 20:40:13 63° WSW 20:44:23 10° NNW
NOSS 3-1 (A) 4.1 20:34:17 10° NNW 20:41:47 62° NE 20:44:07 46° ESE
ERS-1 Rocket 4.3 20:45:10 27° NNE 20:45:10 27° NNE 20:47:48 10° N
Cosmos 332 Rocket 4.2 20:40:17 10° NNW 20:44:08 49° NNE 20:44:08 49° NNE
Envisat 3.0 20:47:01 66° NE 20:47:01 66° NE 20:51:38 10° N
Cosmos 405 Rocket 4.0 20:42:48 10° NNW 20:46:38 41° W 20:48:31 24° SSW
Cosmos 1544 Rocket 4.1 20:42:28 10° SSW 20:46:43 55° W 20:50:58 10° N
Cosmos 1814 Rocket 4.0 20:41:39 10° NNW 20:46:49 77° WSW 20:47:53 56° S
ATLAS 2AS CENTAUR R/B 4.0 20:40:12 10° NNW 20:46:58 28° NNE 20:48:06 27° NE
USA 32 3.9 20:49:10 10° N 20:54:06 79° NNE 20:54:06 79° NNE
Nadezhda 3 Rocket 4.1 20:48:27 10° NNW 20:54:36 72° W 20:59:43 15° S
Cosmos 371 Rocket 4.3 20:50:05 10° NNW 20:53:07 36° N 20:53:07 36° N
Cosmos 2237 Rocket 2.3 20:49:43 10° NNW 20:55:26 76° WSW 20:56:29 59° S
NOSS 0 Rocket 4.4 20:50:12 10° NNW 20:56:12 57° WSW 20:59:13 29° S
Cosmos 2297 Rocket 2.2 20:51:34 10° SSW 20:56:25 67° S 20:56:25 67° S
NOSS 3-1 (C) 4.0 20:52:03 10° NW 20:59:42 88° SW 21:02:16 50° SSE
Cosmos 1066 Rocket 4.0 20:54:21 10° N 21:00:01 88° W 21:00:03 87° WSW
Cosmos 2341 Rocket 4.1 20:58:51 10° SSW 21:05:12 78° W 21:11:38 10° N
Cosmos 2219 Rocket 3.6 21:02:18 10° NW 21:07:20 35° WSW 21:10:46 18° SSW
H-2A R/B 4.5 21:03:38 10° SSW 21:42:30 10° E 21:06:27 25° SSE
Helios 1B rocket 4.0 21:07:02 10° N 21:10:48 34° WNW 21:14:32 10° SW
Cosmos 2227 Rocket 2.8 21:12:17 10° SW 21:17:47 53° WNW 21:20:36 28° N
Atlas Centaur 2 4.3 21:15:50 10° SW 21:18:27 18° SSW 21:18:27 18° SSW
SL-16 R/B 3.2 21:25:38 10° NNW 21:29:17 42° NNW 21:29:17 42° NNW
Cosmos 2333 Rocket 4.5 21:49:25 10° WNW 21:53:14 18° W 21:55:05 16° WSW
ATLAS 2AS CENTAUR R/B 4.1 22:31:02 10° NW 22:35:33 37° NNW 22:35:33 37° NNW
